TimeCDT,TemperatureF,Dew PointF,Humidity,Sea Level PressureIn,VisibilityMPH,Wind Direction,Wind SpeedMPH,Gust SpeedMPH,PrecipitationIn,Events,Conditions,WindDirDegrees,DateUTC
12:15 AM,50.0,50.0,100,29.94,10.0,SW,20.7,27.6,N/A,,Mostly Cloudy,220,2013-03-30 05:15:00
12:35 AM,50.0,50.0,100,29.93,10.0,SW,18.4,26.5,N/A,Thunderstorm,Overcast,220,2013-03-30 05:35:00
1:15 AM,48.2,48.2,100,29.93,10.0,SSW,17.3,24.2,N/A,,Clear,210,2013-03-30 06:15:00
1:35 AM,46.4,46.4,100,29.92,10.0,SSW,13.8,-,N/A,,Mostly Cloudy,200,2013-03-30 06:35:00
1:55 AM,46.4,46.4,100,29.92,10.0,SW,17.3,-,N/A,,Overcast,220,2013-03-30 06:55:00
2:15 AM,48.2,48.2,100,29.92,10.0,SW,16.1,21.9,N/A,,Overcast,220,2013-03-30 07:15:00
2:35 AM,48.2,48.2,100,29.92,10.0,SW,15.0,26.5,N/A,,Overcast,220,2013-03-30 07:35:00
2:55 AM,48.2,48.2,100,29.92,10.0,SW,20.7,29.9,N/A,,Mostly Cloudy,220,2013-03-30 07:55:00
3:15 AM,48.2,48.2,100,29.90,10.0,SSW,25.3,33.4,N/A,,Scattered Clouds,210,2013-03-30 08:15:00
3:35 AM,48.2,48.2,100,29.89,10.0,SSW,26.5,35.7,N/A,,Clear,210,2013-03-30 08:35:00
3:55 AM,48.2,48.2,100,29.90,10.0,SW,23.0,33.4,N/A,,Clear,220,2013-03-30 08:55:00
4:15 AM,48.2,48.2,100,29.90,10.0,SW,18.4,27.6,N/A,,Scattered Clouds,220,2013-03-30 09:15:00
4:35 AM,48.2,48.2,100,29.91,10.0,WSW,15.0,34.5,N/A,,Overcast,250,2013-03-30 09:35:00
4:55 AM,46.4,46.4,100,29.91,10.0,WSW,18.4,31.1,N/A,,Overcast,240,2013-03-30 09:55:00
5:15 AM,46.4,46.4,100,29.91,10.0,WSW,16.1,21.9,N/A,,Overcast,240,2013-03-30 10:15:00
5:35 AM,44.6,44.6,100,29.91,10.0,WSW,13.8,24.2,N/A,,Mostly Cloudy,240,2013-03-30 10:35:00
5:55 AM,44.6,44.6,100,29.91,10.0,WSW,15.0,19.6,N/A,,Mostly Cloudy,240,2013-03-30 10:55:00
6:15 AM,44.6,44.6,100,29.92,10.0,West,12.7,-,N/A,,Mostly Cloudy,270,2013-03-30 11:15:00
6:35 AM,44.6,44.6,100,29.92,10.0,WNW,11.5,16.1,N/A,,Overcast,290,2013-03-30 11:35:00
6:55 AM,41.0,41.0,100,29.92,8.0,WNW,11.5,-,N/A,,Overcast,300,2013-03-30 11:55:00
7:15 AM,39.2,39.2,100,29.92,0.2,WNW,11.5,-,N/A,Fog,Fog,290,2013-03-30 12:15:00
7:35 AM,37.4,37.4,100,29.94,5.0,WNW,9.2,-,N/A,,Scattered Clouds,300,2013-03-30 12:35:00
7:55 AM,35.6,35.6,100,29.94,10.0,NW,12.7,-,N/A,,Clear,310,2013-03-30 12:55:00
8:15 AM,35.6,35.6,100,29.95,10.0,NW,11.5,-,N/A,,Clear,320,2013-03-30 13:15:00
8:35 AM,35.6,35.6,100,29.96,10.0,NW,12.7,-,N/A,,Partly Cloudy,320,2013-03-30 13:35:00
8:55 AM,35.6,35.6,100,29.96,1.0,NNW,12.7,-,N/A,,Overcast,330,2013-03-30 13:55:00
9:15 AM,33.8,33.8,100,29.97,0.2,NNW,11.5,-,N/A,Fog,Fog,340,2013-03-30 14:15:00
9:35 AM,33.8,33.8,100,29.97,0.2,NNW,10.4,-,N/A,Fog,Fog,330,2013-03-30 14:35:00
9:55 AM,35.6,35.6,100,29.97,0.2,NNW,10.4,-,N/A,Fog,Fog,330,2013-03-30 14:55:00
10:15 AM,35.6,35.6,100,29.97,0.2,NNW,9.2,-,N/A,Fog,Fog,330,2013-03-30 15:15:00
10:35 AM,37.4,37.4,100,29.97,1.0,NW,9.2,-,N/A,,Overcast,320,2013-03-30 15:35:00
10:55 AM,39.2,39.2,100,29.97,10.0,NNW,9.2,-,N/A,,Mostly Cloudy,330,2013-03-30 15:55:00
11:15 AM,44.6,44.6,100,29.97,10.0,NNW,10.4,-,N/A,,Partly Cloudy,340,2013-03-30 16:15:00
11:35 AM,46.4,46.4,100,29.97,10.0,North,9.2,-,N/A,,Clear,350,2013-03-30 16:35:00
11:55 AM,48.2,46.4,93,29.97,10.0,NNW,11.5,16.1,N/A,,Clear,330,2013-03-30 16:55:00
12:15 PM,50.0,46.4,87,29.96,10.0,NNW,12.7,18.4,N/A,,Clear,330,2013-03-30 17:15:00
12:35 PM,51.8,44.6,76,29.96,10.0,NNW,13.8,-,N/A,,Clear,330,2013-03-30 17:35:00
12:55 PM,51.8,44.6,76,29.96,10.0,NNW,13.8,-,N/A,,Clear,330,2013-03-30 17:55:00
1:15 PM,53.6,44.6,72,29.95,10.0,NNW,16.1,23.0,N/A,,Clear,330,2013-03-30 18:15:00
1:35 PM,51.8,46.4,82,29.95,10.0,NW,18.4,-,N/A,,Clear,310,2013-03-30 18:35:00
1:55 PM,50.0,46.4,87,29.95,10.0,NNW,16.1,23.0,N/A,,Clear,330,2013-03-30 18:55:00
2:15 PM,51.8,46.4,82,29.95,10.0,NNW,17.3,20.7,N/A,,Clear,330,2013-03-30 19:15:00
2:35 PM,53.6,46.4,77,29.94,10.0,NW,16.1,-,N/A,,Clear,320,2013-03-30 19:35:00
2:55 PM,53.6,46.4,77,29.94,10.0,NNW,15.0,18.4,N/A,,Clear,330,2013-03-30 19:55:00
3:15 PM,53.6,48.2,82,29.94,10.0,NW,16.1,-,N/A,,Partly Cloudy,320,2013-03-30 20:15:00
3:35 PM,53.6,46.4,77,29.93,10.0,NW,17.3,-,N/A,,Partly Cloudy,320,2013-03-30 20:35:00
3:55 PM,53.6,44.6,72,29.93,10.0,NW,17.3,-,N/A,,Clear,320,2013-03-30 20:55:00
4:15 PM,53.6,46.4,77,29.93,10.0,NNW,13.8,-,N/A,,Clear,340,2013-03-30 21:15:00
4:35 PM,53.6,46.4,77,29.93,10.0,NNW,16.1,-,N/A,,Clear,340,2013-03-30 21:35:00
4:55 PM,51.8,46.4,82,29.93,10.0,NNW,16.1,20.7,N/A,,Clear,330,2013-03-30 21:55:00
5:15 PM,50.0,46.4,87,29.93,10.0,NNW,16.1,-,N/A,,Clear,330,2013-03-30 22:15:00
5:35 PM,50.0,46.4,87,29.93,10.0,NNW,15.0,-,N/A,,Clear,330,2013-03-30 22:35:00
5:55 PM,48.2,48.2,100,29.93,10.0,NNW,13.8,-,N/A,,Clear,330,2013-03-30 22:55:00
6:15 PM,46.4,46.4,100,29.94,10.0,North,17.3,-,N/A,,Partly Cloudy,350,2013-03-30 23:15:00
6:35 PM,44.6,44.6,100,29.94,10.0,North,15.0,-,N/A,,Partly Cloudy,360,2013-03-30 23:35:00
6:55 PM,41.0,41.0,100,29.94,10.0,North,13.8,-,N/A,,Scattered Clouds,350,2013-03-30 23:55:00
7:15 PM,39.2,39.2,100,29.94,10.0,North,10.4,-,N/A,,Scattered Clouds,350,2013-03-31 00:15:00
7:35 PM,39.2,39.2,100,29.94,9.0,NNW,9.2,-,N/A,,Mostly Cloudy,340,2013-03-31 00:35:00
7:55 PM,37.4,37.4,100,29.94,4.0,NNW,9.2,-,N/A,,Overcast,340,2013-03-31 00:55:00
8:15 PM,37.4,37.4,100,29.95,1.2,North,5.8,-,N/A,,Overcast,350,2013-03-31 01:15:00
8:35 PM,37.4,37.4,100,29.95,1.5,NW,8.1,-,N/A,,Overcast,320,2013-03-31 01:35:00
8:55 PM,35.6,35.6,100,29.95,0.2,NW,10.4,-,N/A,Fog,Fog,320,2013-03-31 01:55:00
9:15 PM,35.6,35.6,100,29.96,0.2,North,6.9,-,N/A,Fog,Fog,350,2013-03-31 02:15:00
9:35 PM,35.6,35.6,100,29.96,0.2,NW,8.1,-,N/A,Fog,Fog,320,2013-03-31 02:35:00
9:55 PM,35.6,35.6,100,29.95,0.2,NW,6.9,-,N/A,Fog,Fog,320,2013-03-31 02:55:00
10:15 PM,35.6,35.6,100,29.95,0.2,NNW,4.6,-,N/A,Fog,Fog,340,2013-03-31 03:15:00
10:35 PM,33.8,33.8,100,29.95,0.2,NNW,5.8,-,N/A,Fog,Fog,330,2013-03-31 03:35:00
10:55 PM,33.8,33.8,100,29.94,0.2,NW,4.6,-,N/A,Fog,Fog,320,2013-03-31 03:55:00
11:15 PM,32.0,32.0,100,29.94,0.2,NNW,4.6,-,N/A,Fog,Fog,330,2013-03-31 04:15:00
11:35 PM,32.0,32.0,100,29.95,0.2,NNW,8.1,-,N/A,Fog,Fog,340,2013-03-31 04:35:00
11:55 PM,32.0,32.0,100,29.95,0.2,North,6.9,-,N/A,Fog,Fog,350,2013-03-31 04:55:00